Regional Weather Roundup
Issued by NWS

Home | Current Version | Previous Version | Text Only | Print | Product List | Glossary On
Versions: 1 2 3 4 5 6 7 8 9 10 11 12 13 14 15 16 17 18 19 20 21 22 23 24 25 26 27 28 29 30 31 32 33 34 35 36 37 38 39 40 41 42 43 44 45 46 47 48 49 50
000
ASUS46 KLOX 040912
RWRCA

SOUTHERN CALIFORNIA WEATHER ROUNDUP
NATIONAL WEATHER SERVICE OXNARD CALIFORNIA
200 AM PDT MON MAY 04 2015

NOTE: "FAIR" INDICATES FEW OR NO CLOUDS BELOW 12,000 FEET WITH NO
SIGNIFICANT WEATHER AND/OR OBSTRUCTIONS TO VISIBILITY.

  -  STATIONS PRECEEDED BY AN ASTERISK (*) ARE NOT NWS OR FAA
     STATIONS AND ARE NOT SUBJECT TO NWS AND FAA QUALITY CONTROL.

CAZ041-042-087-041000-
LA AND ORANGE COUNTY COASTAL AREAS


CITY           SKY/WX    TMP DP  RH WIND       PRES   REMARKS
L.A. DOWNTOWN  CLEAR     57  51  80 VRB3      29.93R
L.A. AIRPORT   PTCLDY    56  51  84 S7        29.92S
LONG BEACH     CLEAR     59  50  72 NW6       29.93S

CITY           SKY/WX    TMP DP  RH WIND       PRES   REMARKS
AVALON           N/A     59 N/A N/A MISG        N/A
FULLERTON      CLEAR     58 N/A N/A CALM      29.92F
*GETTY CENTER    N/A    N/A N/A N/A NE6G13      N/A
HAWTHORNE      CLEAR     58  51  78 S5        29.93S
*LEO CARRILLO    N/A     52  44  73 CALM        N/A
*LOS ALAMITOS  FAIR      55  51  85 NW1       29.93S
*REDONDO BEACH   N/A     56  51  81 CALM      29.93S
SANTA ANA      MOCLDY    58  52  80 CALM      29.93S
STA MONICA APT CLEAR     57  51  80 E6        29.92S
*UCLA            N/A     55  50  82 NE5       29.90S

$$

CAZ547-548-048-041000-
LA COUNTY VALLEYS AND INLAND EMPIRE


CITY           SKY/WX    TMP DP  RH WIND       PRES   REMARKS
BURBANK        CLEAR     57  49  74 SE12      29.92R
VAN NUYS       CLEAR     57  48  72 SE8       29.92S

CITY           SKY/WX    TMP DP  RH WIND       PRES   REMARKS
CORONA AIRPORT PTSUNNY   52  47  83 CALM      29.94S
*CHATSWORTH      N/A     54  47  78 CALM      29.92S
CHINO          MOCLDY    57  50  77 W5        29.94F
MARCH AFB      MOCLDY    56  53  88 CALM      29.92F
*NORTHRIDGE      N/A     55  46  71 E2          N/A
ONTARIO        PTCLDY    56  47  71 W10       29.93S
*PASADENA        N/A     55  50  82 CALM        N/A
RIVERSIDE      CLEAR     56  47  71 CALM      29.93S
SAN BERNARDINO NOT AVBL
*SAN RAFAEL HI   N/A     50  47  88 SW13        N/A
*SAUGUS          N/A     53  47  79 W3          N/A
*WHITEMAN AP   NOT AVBL
*WOODLAND HILL   N/A     52  46  82 N1          N/A

$$

CAZ054-055-041000-
LA AND SAN BERNARDINO COUNTY MOUNTAINS


CITY           SKY/WX    TMP DP  RH WIND       PRES   REMARKS
*BIG BEAR AIRP MOSUNNY   41  30  65 W3        30.03F
*CHILAO          N/A     50  29  44 SW2         N/A
MT WILSON NWS    N/A     50  23  34 W8G18       N/A
SANDBERG       CLEAR     56  32  40 NW8       29.96F
*WARM SPRINGS    N/A     53  40  60 W8          N/A

$$

CAZ028-029-059-060-099-041000-
ANTELOPE VALLEY AND SURROUNDING AREAS


CITY           SKY/WX    TMP DP  RH WIND       PRES   REMARKS
LANCASTER      CLEAR     56  35  45 SW9       29.87S
PALMDALE       CLEAR     61  37  41 SW17      29.88S
*POPPY PARK      N/A     59  34  39 W8          N/A

CITY           SKY/WX    TMP DP  RH WIND       PRES   REMARKS
29 PALMS       PTCLDY    72  34  24 W9        29.89S
BARSTOW/DAGGET CLEAR     69  33  26 W14       29.82F
BISHOP         CLEAR     53  29  39 SE5       29.88S
CHINA LAKE     CLEAR     64  30  27 S9        29.80F
EDWARDS AFB    CLEAR     60  34  38 SW10      29.84S
MOJAVE         FAIR      64  28  25 W14       29.86S
NEEDLES        PTCLDY    80  41  24 CALM      29.74R
VICTORVILLE    CLEAR     55  45  67 S7        29.89F

$$

CAZ039-040-041000-
VENTURA AND SANTA BARBARA COUNTY COAST


CITY           SKY/WX    TMP DP  RH WIND       PRES   REMARKS
CAMARILLO      CLEAR     54  48  80 S5        29.92S
NWS OXNARD       N/A     52  47  83 CALM      29.91S
OXNARD AIRPORT CLEAR     53  48  83 CALM      29.92S
*POINT MUGU    CLEAR     56  49  77 W7        29.93S
SBA APT/GOLETA CLEAR     55  50  83 E8        29.89S
*SANTA BARBARA   N/A     57  49  76 CALM      29.97F
*VENTURA         N/A     53  47  78 CALM      29.53S

$$

CAZ044-045-041000-
VENTURA COUNTY VALLEYS


CITY           SKY/WX    TMP DP  RH WIND       PRES   REMARKS
*SIMI VALLEY     N/A     49  46  88 CALM      29.88S
*OJAI            N/A     45  42  88 CALM      29.87R
*FILLMORE        N/A     50  44  81 CALM      29.82S

$$

CAZ053-041000-
VENTURA COUNTY MOUNTAINS


CITY           SKY/WX    TMP DP  RH WIND       PRES   REMARKS
*LOCKWOOD VLY    N/A     34  25  69 MISG        N/A
*ROSE VALLEY     N/A     37  36  93 MISG        N/A

$$

CAZ034-035-036-041000-
CENTRAL COAST AND SANTA YNEZ VALLEY


CITY           SKY/WX    TMP DP  RH WIND       PRES   REMARKS
SAN LUIS OBISP CLEAR     48  43  82 MISG      29.94S
SANTA MARIA    CLEAR     50  43  77 CALM      29.94S

CITY           SKY/WX    TMP DP  RH WIND       PRES   REMARKS
*CAL POLY SLO    N/A     46  45  93 CALM        N/A
*LOMPOC        PTCLDY    45  36  70 CALM      29.95S
*SANTA YNEZ    FAIR      46  43  87 CALM      29.93S

$$

CAZ037-038-051-041000-
SAN LUIS OBISPO COUNTY INTERIOR AND CUYAMA VALLEY


CITY           SKY/WX    TMP DP  RH WIND       PRES   REMARKS
*CUYAMA          N/A     50  38  64 E3        29.82S
PASO ROBLES    CLEAR     46  41  82 W3        29.92S

$$

CAZ032-033-061-041000-
SOUTHERN DESERTS


CITY           SKY/WX    TMP DP  RH WIND       PRES   REMARKS
BLYTHE         CLEAR     76  53  44 SW8       29.74F
IMPERIAL       CLEAR     71  58  63 SE5       29.73F
PALM SPRINGS   PTCLDY    73  47  39 NW9       29.77F
THERMAL        PTCLDY    74  49  41 NW14      29.72F

$$

ELSEWHERE ACROSS THE WESTERN UNITED STATES AND MEXICO


CITY           SKY/WX    TMP DP  RH WIND       PRES   REMARKS
DENVER, CO     CLOUDY    50  46  86 E7        30.10R
GRAND CANYON,  CLEAR     33  31  92 CALM      30.06S
HONOLULU, HI   PTCLDY    74  62  66 NE12      30.04S
KAHULUI, MAUI  PTCLDY    73  59  60 NE12G23   30.03S
LAKE TAHOE, CA PTCLDY    41  32  70 CALM      30.02F
LAS VEGAS, NV  PTCLDY    75  28  17 S9        29.74S
MAMMOTH LAKES, FAIR      41  28  60 CALM      30.04F
MEXICO CITY, M PTCLDY    61  52  72 CALM      30.25F
PHOENIX, AZ    TSTM      71  62  73 E16       29.83R
PORTLAND, OR   PTCLDY    53  42  66 NW6       29.89S
RENO, NV       MOCLDY    59  30  33 NW5       29.95S
SALT LAKE CITY LGT RAIN  60  47  61 E16       29.93F
SAN DIEGO, CA  CLOUDY    63  52  67 W6        29.94F
SAN FRANCISCO, CLOUDY    53  46  77 W12       29.94R
SAN JOSE, CA   CLOUDY    56  47  71 CALM      29.92S
SEATTLE, WA    CLEAR     51  37  59 CALM      29.89S
TIJUANA, MEX   CLOUDY    61  50  67 W6        29.95F

$$

STATION/POSITION TIME  TEMP    WIND        PRES    VSBY  WAVE
                       AIR SEA DIR/SP/G                  HT/PER
                 (UTC) (F)     (DEG/KT/KT) (MB)    (MI)  (FT/S)
POINT ARGUELLO B NOT AVBL
WEST SANTA BARBA 0900   56 56  300/ 14/ 17 1012.8R         7/21
POINT CONCEPTION NOT AVBL
EAST SANTA BARBA NOT AVBL
SANTA MONICA BAY 0900   59 63  280/ 10/ 14 1013.5R         5/16



USA.gov is the U.S. government's official web portal to all federal, state and local government web resources and services.